Weather History for KMOT - February, 2013

Change the Weather History Date:

Saturday, February 2, 2013

  Actual Average Record
Temperature  
Mean Temperature 15 °F 14 °F  
Max Temperature 31 °F 23 °F 58 °F (1935)
Min Temperature -2 °F 5 °F -43 °F (1917)
Degree Days  
Heating Degree Days 50 51  
Month to date heating degree days 118 102  
Since 1 July heating degree days 5519 5334  
Moisture  
Dew Point 9 °F    
Average Humidity 81    
Maximum Humidity 88    
Minimum Humidity 73    
Precipitation  
Precipitation 0.11 in 0.02 in 0.23 in (1959)
Month to date precipitation 0.12 0.03  
Year to date precipitation 0.23 0.54  
Sea Level Pressure  
Sea Level Pressure 30.01 in    
Wind  
Wind Speed 17 mph (West)    
Max Wind Speed 36 mph    
Max Gust Speed 43 mph    
Visibility 4 miles    
Events Fog , Snow    
T = Trace of Precipitation, MM = Missing Value Source: NWS Daily Summary

Daily Weather History Graph

Daily Weather History Graph

Search for Another Location

Airport or City:

Trip Planner

Search our weather history database for the weather conditions in past years. The results will help you decide how hot, cold, wet, or windy it might be!

Date:

Astronomy

Feb. 02, 2013 Rise Set
Actual Time 8:11 AM CST 5:46 PM CST
Civil Twilight 7:38 AM CST 6:20 PM CST
Nautical Twilight 7:01 AM CST 6:57 PM CST
Astronomical Twilight 6:24 AM CST 7:33 PM CST
Moon 12:29 AM CST (2/2) 10:47 AM CST (2/2)
Length of Visible Light 10h 41m
Length of Day
9h 34m
Waning Gibbous, 59% of the Moon is Illuminated
Feb 2
Waning Gibbous
Feb 3
Last Quarter
Feb 10
New
Feb 17
First Quarter
Feb 25
Full

Hourly Weather History & Observations

Time (CST) Temp. Windchill Dew Point Humidity Pressure Visibility Wind Dir Wind Speed Gust Speed Precip Events Conditions
12:54 AM 1.9 °F - -4.0 °F 76% 30.22 in 10.0 mi Calm Calm - N/A   Overcast
1:54 AM -0.9 °F -14.1 °F -6.0 °F 79% 30.22 in 10.0 mi WNW 6.9 mph - N/A   Overcast
2:29 AM -0.4 °F -14.7 °F -5.8 °F 78% 30.08 in 10.0 mi WNW 8.1 mph - N/A   Overcast
2:54 AM -0.4 °F -13.4 °F -5.8 °F 78% 30.09 in 10.0 mi West 6.9 mph - N/A   Overcast
3:54 AM -2.0 °F - -7.1 °F 79% 30.18 in 10.0 mi Calm Calm - N/A   Scattered Clouds
4:54 AM -0.0 °F -9.9 °F -6.0 °F 76% 30.17 in 10.0 mi SW 4.6 mph - N/A   Overcast
5:42 AM 1.4 °F -8.3 °F -5.8 °F 72% 30.02 in 10.0 mi SSW 4.6 mph - 0.00 in   Overcast
5:54 AM 1.4 °F -8.3 °F -4.0 °F 78% 30.01 in 5.0 mi South 4.6 mph - N/A Snow Light Snow
6:54 AM 3.9 °F -8.2 °F -0.9 °F 80% 30.12 in 10.0 mi South 6.9 mph - 0.00 in   Overcast
7:04 AM 3.2 °F -9.1 °F -0.4 °F 85% 29.97 in 10.0 mi SSE 6.9 mph - N/A   Overcast
7:54 AM 6.1 °F -6.8 °F -0.0 °F 76% 30.05 in 6.0 mi South 8.1 mph - 0.00 in Snow Light Snow
8:06 AM 6.8 °F -4.8 °F 1.4 °F 79% 29.92 in 2.0 mi South 6.9 mph - 0.00 in Snow Light Snow
8:16 AM 6.8 °F -6.9 °F 1.4 °F 79% 29.91 in 1.8 mi SSE 9.2 mph - 0.00 in Snow Light Snow
8:27 AM 6.8 °F -6.9 °F 3.2 °F 85% 29.90 in 0.5 mi SSE 9.2 mph - 0.01 in Fog , Snow Snow
8:37 AM 6.8 °F -6.9 °F 3.2 °F 85% 29.89 in 0.2 mi SSE 9.2 mph - 0.02 in Fog , Snow Snow
8:54 AM 8.1 °F -3.2 °F 5.0 °F 87% 30.01 in 0.2 mi SSE 6.9 mph - 0.04 in Fog , Snow Heavy Snow
9:19 AM 8.6 °F -2.6 °F 6.8 °F 92% 29.87 in 1.0 mi South 6.9 mph - 0.03 in Snow Light Snow
9:27 AM 10.4 °F -0.4 °F 6.8 °F 85% 29.86 in 1.5 mi South 6.9 mph - 0.03 in Snow Light Snow
9:36 AM 10.4 °F -1.5 °F 8.6 °F 92% 29.86 in 2.0 mi South 8.1 mph - 0.03 in Snow Light Snow
9:44 AM 12.2 °F -1.0 °F 8.6 °F 85% 29.86 in 0.5 mi SSW 10.4 mph - 0.03 in Fog , Snow Light Snow
9:54 AM 14.0 °F 1.2 °F 10.0 °F 84% 29.98 in 0.5 mi SSW 10.4 mph - 0.03 in Fog , Snow Light Snow
9:56 AM 14.0 °F -0.2 °F 10.4 °F 86% 29.86 in 2.0 mi SW 12.7 mph - 0.00 in Snow Light Snow
10:08 AM 15.8 °F 2.7 °F 12.2 °F 86% 29.85 in 1.2 mi SW 11.5 mph - 0.00 in Snow Light Snow
10:14 AM 17.6 °F 5.0 °F 12.2 °F 79% 29.85 in 3.0 mi SW 11.5 mph - 0.00 in Snow Light Snow
10:27 AM 19.4 °F 3.6 °F 15.8 °F 86% 29.84 in 1.5 mi SW 19.6 mph 24.2 mph 0.00 in Snow Light Snow
10:36 AM 21.2 °F 6.8 °F 17.6 °F 86% 29.83 in 0.8 mi WSW 17.3 mph - 0.00 in Snow Light Snow
10:44 AM 21.2 °F 7.3 °F 17.6 °F 86% 29.83 in 1.5 mi WSW 16.1 mph 25.3 mph 0.00 in Snow Light Snow
10:54 AM 24.1 °F 8.7 °F 19.9 °F 84% 29.94 in 1.5 mi WSW 23.0 mph 27.6 mph 0.00 in Snow Light Snow
11:37 AM 30.2 °F 16.5 °F 26.6 °F 86% 29.83 in 2.5 mi West 24.2 mph 31.1 mph 0.00 in Snow Light Snow
11:50 AM 30.2 °F 17.1 °F 26.6 °F 86% 29.84 in 3.0 mi WNW 21.9 mph 28.8 mph 0.00 in Snow Light Snow
11:54 AM 30.9 °F 17.8 °F 27.0 °F 85% 29.94 in 4.0 mi NW 23.0 mph 31.1 mph 0.00 in   Overcast
12:08 PM 30.2 °F 16.2 °F 26.6 °F 86% 29.85 in 2.5 mi NW 25.3 mph 35.7 mph 0.00 in Snow Light Snow
12:19 PM 30.2 °F 17.4 °F 26.6 °F 86% 29.86 in 2.0 mi NW 20.7 mph 31.1 mph 0.00 in Snow Light Snow
12:26 PM 28.4 °F 13.0 °F 24.8 °F 86% 29.86 in 1.0 mi NW 28.8 mph 39.1 mph 0.00 in Snow Light Snow
12:54 PM 25.0 °F 8.6 °F 21.0 °F 85% 30.01 in 1.2 mi NW 27.6 mph 35.7 mph 0.00 in Snow Light Snow
1:06 PM 23.0 °F 5.1 °F 19.4 °F 86% 29.92 in 0.5 mi WNW 31.1 mph 39.1 mph 0.00 in Fog , Snow Light Snow
1:22 PM 21.2 °F 2.4 °F 17.6 °F 86% 29.92 in 0.5 mi WNW 32.2 mph 41.4 mph 0.01 in Fog , Snow Light Snow
1:32 PM 21.2 °F 4.2 °F 17.6 °F 86% 29.92 in 1.0 mi NW 25.3 mph 39.1 mph 0.01 in Snow Light Snow
1:54 PM 21.9 °F 3.7 °F 17.1 °F 82% 30.06 in 0.8 mi WNW 31.1 mph 39.1 mph 0.01 in Snow Light Snow
2:54 PM 19.0 °F 0.3 °F 14.0 °F 81% 30.09 in 0.5 mi WNW 28.8 mph - 0.01 in Snow Snow
3:07 PM 19.4 °F 2.1 °F 14.0 °F 80% 29.98 in 1.2 mi WNW 24.2 mph - 0.00 in Snow Light Snow
3:20 PM 17.6 °F -2.2 °F 14.0 °F 86% 30.00 in 0.5 mi WNW 31.1 mph 35.7 mph 0.00 in Fog , Snow Snow
3:54 PM 16.0 °F -4.1 °F 12.0 °F 84% 30.16 in 0.5 mi WNW 29.9 mph 39.1 mph 0.00 in Fog , Snow Light Snow
4:01 PM 15.8 °F -3.4 °F 10.4 °F 79% 30.03 in 0.5 mi WNW 26.5 mph 36.8 mph 0.01 in Snow Snow
4:11 PM 15.8 °F -5.0 °F 10.4 °F 79% 30.04 in 0.2 mi WNW 32.2 mph 40.3 mph 0.01 in Fog , Snow Light Snow
4:35 PM 14.0 °F -5.5 °F 8.6 °F 79% 30.05 in 2.0 mi WNW 25.3 mph 36.8 mph 0.01 in Snow Light Snow
4:54 PM 12.9 °F -9.5 °F 8.1 °F 81% 30.19 in 2.0 mi WNW 34.5 mph 42.6 mph 0.01 in Snow Light Snow
5:01 PM 12.2 °F -8.9 °F 8.6 °F 85% 30.06 in 0.5 mi WNW 28.8 mph 42.6 mph 0.01 in Snow Snow
5:08 PM 12.2 °F -9.6 °F 6.8 °F 79% 30.06 in 2.5 mi WNW 31.1 mph 39.1 mph 0.01 in Snow Blowing Snow
5:35 PM 10.4 °F -9.9 °F 6.8 °F 85% 30.07 in 6.0 mi WNW 24.2 mph - 0.01 in Snow Blowing Snow
5:54 PM 10.9 °F -11.0 °F 6.1 °F 81% 30.21 in 8.0 mi WNW 29.9 mph - 0.01 in   Clear
5:56 PM 10.4 °F -11.7 °F 6.8 °F 85% 30.08 in 0.8 mi WNW 29.9 mph 34.5 mph N/A   Haze
6:05 PM 10.4 °F -10.7 °F 5.0 °F 79% 30.08 in 8.0 mi WNW 26.5 mph 34.5 mph 0.00 in   Clear
6:54 PM 10.0 °F -11.1 °F 5.0 °F 80% 30.22 in 8.0 mi West 26.5 mph 35.7 mph 0.00 in   Clear
7:01 PM 10.4 °F -9.9 °F 3.2 °F 73% 30.10 in 2.0 mi West 24.2 mph - N/A   Haze
7:12 PM 10.4 °F -9.5 °F 3.2 °F 73% 30.10 in 10.0 mi West 23.0 mph 32.2 mph N/A   Clear
7:54 PM 10.0 °F -9.5 °F 3.9 °F 76% 30.23 in 10.0 mi West 21.9 mph - N/A   Mostly Cloudy
8:54 PM 10.9 °F -5.9 °F 6.1 °F 81% 30.21 in 10.0 mi WNW 16.1 mph - N/A   Overcast
9:54 PM 12.0 °F -5.1 °F 7.0 °F 80% 30.19 in 10.0 mi WNW 17.3 mph - N/A   Overcast
10:54 PM 15.1 °F -1.1 °F 9.0 °F 77% 30.14 in 10.0 mi West 17.3 mph - N/A   Mostly Cloudy
11:54 PM 14.0 °F -1.4 °F 8.1 °F 77% 30.11 in 10.0 mi WSW 15.0 mph 25.3 mph N/A   Clear